GAF350 ETHC-ZZZZ

Flight info

Callsign GAF350
Flight time N/A
Altitude 1111
Route 525755N0103255E DCT EDHL DCT 541910N0104059E DCT 542848N0095223E
Aircraft EC45/L-SDE3FGHIRWY/S

Departure

Time 2026-04-20 16:20
Airport Celle Army Airfield (ETHC)

Arrival

Time N/A
Airport ZZZZ
Time Latitude Longitude Altitude Speed Heading
2026-04-20 15:42 52.59528 10.03375 134 ft 0 kts 261°
2026-04-20 16:17 52.59540 10.03346 140 ft 8 kts 332°
2026-04-20 16:17 52.59555 10.03242 140 ft 13 kts 261°
2026-04-20 16:17 52.59541 10.03100 140 ft 12 kts 261°
2026-04-20 16:18 52.59529 10.02970 138 ft 11 kts 233°
2026-04-20 16:18 52.59456 10.02896 140 ft 17 kts 210°
2026-04-20 16:18 52.59350 10.02801 143 ft 17 kts 211°
2026-04-20 16:18 52.59243 10.02726 148 ft 18 kts 230°
2026-04-20 16:19 52.59160 10.02613 168 ft 36 kts 257°
2026-04-20 16:19 52.59096 10.01989 263 ft 67 kts 258°
2026-04-20 16:19 52.59027 10.01189 410 ft 77 kts 262°
2026-04-20 16:19 52.58939 10.00226 711 ft 88 kts 263°
2026-04-20 16:20 52.58835 9.99103 818 ft 104 kts 264°
2026-04-20 16:20 52.58724 9.97947 1093 ft 106 kts 266°
2026-04-20 16:20 52.58613 9.96814 1434 ft 97 kts 268°
2026-04-20 16:20 52.58506 9.95668 1613 ft 105 kts 268°
2026-04-20 16:21 52.58390 9.94465 1849 ft 107 kts 269°
2026-04-20 16:21 52.58278 9.93254 2088 ft 107 kts 272°
2026-04-20 16:21 52.58460 9.92143 2298 ft 97 kts 316°
2026-04-20 16:21 52.59004 9.91650 2521 ft 88 kts 356°
2026-04-20 16:22 52.59606 9.91494 2760 ft 87 kts
2026-04-20 16:22 52.60219 9.91354 2988 ft 90 kts 357°
2026-04-20 16:22 52.60836 9.91125 3221 ft 91 kts 358°
2026-04-20 16:22 52.61460 9.90910 3444 ft 92 kts 358°
2026-04-20 16:23 52.62092 9.90690 3672 ft 93 kts 358°
2026-04-20 16:23 52.62737 9.90463 3880 ft 95 kts 358°
2026-04-20 16:23 52.63386 9.90232 4089 ft 98 kts 358°
2026-04-20 16:23 52.64125 9.89974 4034 ft 114 kts 355°
2026-04-20 16:24 52.64884 9.89680 4015 ft 113 kts 356°
2026-04-20 16:24 52.65667 9.89383 4010 ft 117 kts 356°
2026-04-20 16:24 52.66466 9.89083 4007 ft 118 kts 355°
2026-04-20 16:24 52.67258 9.88781 4004 ft 118 kts 355°
2026-04-20 16:25 52.68065 9.88474 4005 ft 117 kts 355°
2026-04-20 16:25 52.68848 9.88178 4001 ft 117 kts 356°
2026-04-20 16:25 52.69642 9.87880 4000 ft 117 kts 356°
2026-04-20 16:25 52.70438 9.87583 3999 ft 117 kts 356°
2026-04-20 16:26 52.71232 9.87287 3999 ft 117 kts 355°
2026-04-20 16:26 52.72024 9.86993 3999 ft 117 kts 356°
2026-04-20 16:26 52.72821 9.86697 3997 ft 117 kts 356°
2026-04-20 16:26 52.73620 9.86400 3983 ft 118 kts 355°
2026-04-20 16:27 52.74418 9.86103 3988 ft 118 kts 355°
2026-04-20 16:27 52.75216 9.85806 3985 ft 117 kts 355°
2026-04-20 16:27 52.76013 9.85509 3984 ft 118 kts 355°
2026-04-20 16:27 52.76812 9.85211 3982 ft 117 kts 355°
2026-04-20 16:28 52.77609 9.84915 3983 ft 117 kts 355°
2026-04-20 16:28 52.78407 9.84619 3982 ft 118 kts 355°
2026-04-20 16:28 52.79207 9.84323 3981 ft 118 kts 356°
2026-04-20 16:28 52.80004 9.84026 3983 ft 117 kts 356°
2026-04-20 16:29 52.80803 9.83728 3982 ft 118 kts 356°
2026-04-20 16:29 52.81601 9.83432 3982 ft 118 kts 356°
2026-04-20 16:29 52.82399 9.83134 3984 ft 118 kts 356°
2026-04-20 16:29 52.83197 9.82834 3986 ft 117 kts 356°
2026-04-20 16:30 52.83992 9.82534 3981 ft 117 kts 356°
2026-04-20 16:30 52.84792 9.82236 3975 ft 119 kts 356°
2026-04-20 16:30 52.85611 9.81937 3980 ft 122 kts 356°
2026-04-20 16:30 52.86443 9.81629 3985 ft 123 kts 356°
2026-04-20 16:31 52.87272 9.81316 3985 ft 122 kts 356°
2026-04-20 16:31 52.88098 9.81006 4000 ft 121 kts 356°
2026-04-20 16:31 52.88909 9.80700 4000 ft 121 kts 356°
2026-04-20 16:31 52.89737 9.80390 3998 ft 122 kts 356°
2026-04-20 16:32 52.90562 9.80078 3998 ft 121 kts 356°
2026-04-20 16:32 52.91383 9.79771 3995 ft 121 kts 356°
2026-04-20 16:32 52.92204 9.79465 3998 ft 120 kts 357°
2026-04-20 16:32 52.93021 9.79159 3996 ft 121 kts 357°
2026-04-20 16:33 52.93843 9.78852 3998 ft 121 kts 357°
2026-04-20 16:33 52.94659 9.78546 3997 ft 121 kts 356°
2026-04-20 16:33 52.95481 9.78239 4000 ft 121 kts 357°
2026-04-20 16:33 52.96305 9.77929 4001 ft 121 kts 357°
2026-04-20 16:34 52.97125 9.77620 3998 ft 121 kts 356°
2026-04-20 16:34 52.97946 9.77311 3999 ft 121 kts 356°
2026-04-20 16:34 52.98764 9.77002 4002 ft 120 kts 356°
2026-04-20 16:34 52.99583 9.76694 4002 ft 121 kts 356°
2026-04-20 16:35 53.00404 9.76385 4003 ft 120 kts 356°
2026-04-20 16:35 53.01221 9.76078 4002 ft 121 kts 356°
2026-04-20 16:35 53.02039 9.75771 4003 ft 120 kts 356°
2026-04-20 16:35 53.02859 9.75463 4000 ft 121 kts 356°
2026-04-20 16:36 53.03684 9.75154 4001 ft 121 kts 357°
2026-04-20 16:36 53.04504 9.74845 4002 ft 121 kts 357°
2026-04-20 16:36 53.05325 9.74535 4008 ft 121 kts 357°
2026-04-20 16:36 53.06149 9.74224 4008 ft 121 kts 356°
2026-04-20 16:37 53.06967 9.73914 4011 ft 120 kts 356°
2026-04-20 16:37 53.07780 9.73606 4011 ft 120 kts 356°
2026-04-20 16:37 53.08590 9.73299 4010 ft 119 kts 356°
2026-04-20 16:37 53.09402 9.72994 4010 ft 120 kts 356°
2026-04-20 16:38 53.10216 9.72686 4011 ft 120 kts 356°
2026-04-20 16:38 53.11032 9.72378 4013 ft 121 kts 356°
2026-04-20 16:38 53.11851 9.72069 4010 ft 121 kts 356°
2026-04-20 16:38 53.12671 9.71760 4010 ft 121 kts 356°
2026-04-20 16:39 53.13497 9.71450 4012 ft 122 kts 356°
2026-04-20 16:39 53.14321 9.71138 4013 ft 121 kts 356°
2026-04-20 16:39 53.15135 9.70826 4012 ft 120 kts 356°
2026-04-20 16:39 53.15947 9.70516 4023 ft 119 kts 357°
2026-04-20 16:40 53.16749 9.70211 4019 ft 119 kts 357°
2026-04-20 16:40 53.17562 9.69905 4020 ft 120 kts 356°
2026-04-20 16:40 53.18371 9.69596 4021 ft 119 kts 357°
2026-04-20 16:40 53.19187 9.69286 4022 ft 121 kts 356°
2026-04-20 16:41 53.20004 9.68975 4023 ft 120 kts 357°
2026-04-20 16:41 53.20821 9.68664 4020 ft 121 kts 356°
2026-04-20 16:41 53.21646 9.68353 4023 ft 121 kts 356°
2026-04-20 16:41 53.22464 9.68042 4022 ft 121 kts 356°
2026-04-20 16:42 53.23276 9.67734 4022 ft 121 kts 356°
2026-04-20 16:42 53.24101 9.67423 4022 ft 121 kts 356°
2026-04-20 16:42 53.24932 9.67108 4021 ft 121 kts 356°
2026-04-20 16:42 53.25745 9.66799 4023 ft 121 kts 356°
2026-04-20 16:43 53.26562 9.66487 4024 ft 120 kts 357°
2026-04-20 16:43 53.27382 9.66175 4021 ft 121 kts 357°
2026-04-20 16:43 53.28200 9.65864 4023 ft 120 kts 357°
2026-04-20 16:43 53.29015 9.65554 4022 ft 120 kts 356°
2026-04-20 16:44 53.29833 9.65242 4022 ft 120 kts 356°
2026-04-20 16:44 53.30646 9.64932 4022 ft 120 kts 356°
2026-04-20 16:44 53.31465 9.64621 4021 ft 121 kts 356°
2026-04-20 16:44 53.32290 9.64307 4024 ft 121 kts 356°
2026-04-20 16:45 53.33112 9.63992 4024 ft 121 kts 356°
2026-04-20 16:45 53.33933 9.63678 4024 ft 121 kts 357°
2026-04-20 16:45 53.34723 9.63363 4029 ft 114 kts 358°
2026-04-20 16:45 53.35510 9.63063 4022 ft 117 kts 356°
2026-04-20 16:46 53.36296 9.62762 4027 ft 115 kts 358°
2026-04-20 16:46 53.37079 9.62462 4029 ft 116 kts 356°
2026-04-20 16:46 53.37856 9.62162 4030 ft 114 kts 356°
2026-04-20 16:46 53.38632 9.61866 4030 ft 114 kts 356°
2026-04-20 16:47 53.39413 9.61570 4030 ft 116 kts 358°
2026-04-20 16:47 53.40199 9.61272 4017 ft 119 kts 358°
2026-04-20 16:47 53.41007 9.60976 4029 ft 118 kts 356°
2026-04-20 16:47 53.41821 9.60678 4030 ft 120 kts 358°
2026-04-20 16:48 53.42638 9.60369 4031 ft 121 kts 356°
2026-04-20 16:48 53.43450 9.60308 4031 ft 114 kts 18°
2026-04-20 16:48 53.44120 9.60867 4048 ft 105 kts 45°
2026-04-20 16:48 53.44613 9.61783 4056 ft 105 kts 53°
2026-04-20 16:49 53.45063 9.62721 4045 ft 105 kts 53°
2026-04-20 16:49 53.45526 9.63690 4056 ft 107 kts 53°
2026-04-20 16:49 53.45991 9.64645 4051 ft 107 kts 53°
2026-04-20 16:49 53.46468 9.65618 4039 ft 111 kts 53°
2026-04-20 16:50 53.46958 9.66612 4058 ft 110 kts 53°
2026-04-20 16:50 53.47447 9.67592 4058 ft 110 kts 53°
2026-04-20 16:50 53.47934 9.68568 4057 ft 112 kts 53°
2026-04-20 16:50 53.48431 9.69560 4057 ft 112 kts 53°
2026-04-20 16:51 53.48933 9.70562 4060 ft 112 kts 52°
2026-04-20 16:51 53.49436 9.71563 4051 ft 110 kts 53°
2026-04-20 16:51 53.49925 9.72533 3965 ft 108 kts 52°
2026-04-20 16:51 53.50416 9.73501 3812 ft 109 kts 52°
2026-04-20 16:52 53.50914 9.74491 3668 ft 110 kts 52°
2026-04-20 16:52 53.51407 9.75471 3507 ft 111 kts 53°
2026-04-20 16:52 53.51896 9.76446 3355 ft 107 kts 53°
2026-04-20 16:52 53.52375 9.77407 3196 ft 108 kts 53°
2026-04-20 16:53 53.52853 9.78367 3045 ft 107 kts 52°
2026-04-20 16:53 53.53332 9.79326 2895 ft 106 kts 52°
2026-04-20 16:53 53.53800 9.80262 2740 ft 103 kts 53°
2026-04-20 16:53 53.54258 9.81181 2590 ft 103 kts 52°
2026-04-20 16:54 53.54719 9.82113 2453 ft 105 kts 51°
2026-04-20 16:54 53.55188 9.83050 2299 ft 104 kts 50°
2026-04-20 16:54 53.55654 9.83984 2149 ft 104 kts 50°
2026-04-20 16:54 53.56122 9.84926 2000 ft 105 kts 49°
2026-04-20 16:55 53.56588 9.85862 1852 ft 105 kts 49°
2026-04-20 16:55 53.57055 9.86800 1702 ft 103 kts 49°
2026-04-20 16:55 53.57517 9.87725 1555 ft 103 kts 49°
2026-04-20 16:55 53.57976 9.88646 1405 ft 103 kts 49°
2026-04-20 16:56 53.58436 9.89570 1247 ft 105 kts 50°
2026-04-20 16:56 53.58894 9.90493 1101 ft 97 kts 49°
2026-04-20 16:56 53.59340 9.91392 925 ft 105 kts 51°
2026-04-20 16:56 53.59785 9.92287 867 ft 90 kts 50°
2026-04-20 16:57 53.60152 9.93011 516 ft 81 kts 46°
2026-04-20 16:57 53.60536 9.93793 298 ft 92 kts 50°
2026-04-20 16:57 53.60947 9.94653 394 ft 91 kts 47°
2026-04-20 16:57 53.61211 9.95160 296 ft 85 kts 48°
2026-04-20 16:58 53.61615 9.95964 219 ft 95 kts 48°
2026-04-20 16:58 53.62058 9.96846 147 ft 101 kts 47°
2026-04-20 16:58 53.62507 9.97746 144 ft 99 kts 48°
2026-04-20 16:58 53.62945 9.98608 164 ft 94 kts 49°
2026-04-20 16:59 53.63327 9.99438 289 ft 86 kts 50°
2026-04-20 16:59 53.63696 10.00173 461 ft 79 kts 41°
2026-04-20 16:59 53.64189 10.00523 645 ft 79 kts 13°
2026-04-20 16:59 53.64745 10.00421 822 ft 78 kts
2026-04-20 17:00 53.65806 10.00299 1088 ft 82 kts 12°
2026-04-20 17:00 53.66423 10.00286 1132 ft 95 kts 11°
2026-04-20 17:00 53.67126 10.00281 1084 ft 106 kts
2026-04-20 17:01 53.67877 10.00282 1061 ft 108 kts 11°
2026-04-20 17:01 53.68613 10.00444 1057 ft 106 kts 19°
2026-04-20 17:01 53.69345 10.00676 1060 ft 108 kts 18°
2026-04-20 17:01 53.70092 10.00851 1083 ft 109 kts 15°
2026-04-20 17:02 53.70850 10.00991 1098 ft 110 kts 15°
2026-04-20 17:02 53.71598 10.01138 1096 ft 109 kts 15°
2026-04-20 17:02 53.72350 10.01299 1097 ft 109 kts 15°
2026-04-20 17:02 53.73095 10.01470 1084 ft 108 kts 16°
2026-04-20 17:03 53.73844 10.01647 1077 ft 108 kts 16°
2026-04-20 17:03 53.74592 10.01812 1075 ft 108 kts 16°
2026-04-20 17:03 53.75341 10.01962 1067 ft 108 kts 16°
2026-04-20 17:03 53.76089 10.02096 1064 ft 108 kts 16°
2026-04-20 17:04 53.76837 10.02254 1080 ft 108 kts 17°
2026-04-20 17:04 53.77588 10.02428 1098 ft 109 kts 16°
2026-04-20 17:04 53.78346 10.02594 1116 ft 110 kts 15°
2026-04-20 17:04 53.79109 10.02751 1115 ft 111 kts 15°
2026-04-20 17:05 53.79877 10.02897 1117 ft 111 kts 14°
2026-04-20 17:05 53.80646 10.03030 1114 ft 111 kts 13°
2026-04-20 17:05 53.81413 10.03145 1099 ft 110 kts 12°
2026-04-20 17:05 53.82175 10.03240 1080 ft 110 kts 13°
2026-04-20 17:06 53.82943 10.03309 1045 ft 111 kts 13°
2026-04-20 17:06 53.83714 10.03337 1047 ft 111 kts 11°
2026-04-20 17:06 53.84486 10.03331 1048 ft 111 kts 11°
2026-04-20 17:06 53.85251 10.03351 1081 ft 111 kts 13°
2026-04-20 17:07 53.86021 10.03416 1136 ft 111 kts 14°
2026-04-20 17:07 53.86793 10.03529 1176 ft 112 kts 15°
2026-04-20 17:07 53.87594 10.03617 1141 ft 116 kts 12°
2026-04-20 17:07 53.88408 10.03644 1103 ft 118 kts 10°
2026-04-20 17:08 53.89220 10.03671 1065 ft 119 kts 11°
2026-04-20 17:08 53.90044 10.03707 1023 ft 119 kts 11°
2026-04-20 17:08 53.90871 10.03748 974 ft 118 kts 11°
2026-04-20 17:08 53.91695 10.03773 940 ft 119 kts
2026-04-20 17:09 53.92523 10.03777 902 ft 120 kts
2026-04-20 17:09 53.93360 10.03764 868 ft 121 kts
2026-04-20 17:09 53.94196 10.03742 822 ft 119 kts
2026-04-20 17:09 53.95018 10.03726 802 ft 117 kts
2026-04-20 17:10 53.95827 10.03719 798 ft 116 kts
2026-04-20 17:10 53.96631 10.03725 804 ft 115 kts
2026-04-20 17:10 53.97432 10.03748 814 ft 115 kts 11°
2026-04-20 17:10 53.98227 10.03787 842 ft 114 kts
2026-04-20 17:11 53.99022 10.03843 857 ft 114 kts 11°
2026-04-20 17:11 53.99817 10.03919 869 ft 114 kts 12°
2026-04-20 17:11 54.00610 10.04013 831 ft 114 kts 14°
2026-04-20 17:11 54.01400 10.04109 841 ft 114 kts 11°
2026-04-20 17:12 54.02195 10.04148 829 ft 115 kts
2026-04-20 17:12 54.02997 10.04118 809 ft 116 kts
2026-04-20 17:12 54.03801 10.04018 803 ft 117 kts
2026-04-20 17:12 54.04612 10.03847 817 ft 117 kts
2026-04-20 17:13 54.05422 10.03622 838 ft 118 kts
2026-04-20 17:13 54.06231 10.03407 860 ft 117 kts
2026-04-20 17:13 54.07037 10.03210 861 ft 117 kts
2026-04-20 17:13 54.07844 10.03033 870 ft 117 kts
2026-04-20 17:14 54.08654 10.02875 864 ft 117 kts
2026-04-20 17:14 54.09464 10.02739 891 ft 117 kts
2026-04-20 17:14 54.10276 10.02626 889 ft 117 kts
2026-04-20 17:14 54.11085 10.02532 883 ft 116 kts
2026-04-20 17:15 54.11892 10.02454 880 ft 116 kts
2026-04-20 17:15 54.12693 10.02394 874 ft 115 kts
2026-04-20 17:15 54.13495 10.02353 881 ft 115 kts
2026-04-20 17:15 54.14294 10.02330 906 ft 115 kts
2026-04-20 17:16 54.15094 10.02329 939 ft 115 kts 10°
2026-04-20 17:16 54.15881 10.02318 965 ft 115 kts
2026-04-20 17:16 54.16679 10.02264 971 ft 114 kts
2026-04-20 17:16 54.17471 10.02186 980 ft 114 kts
2026-04-20 17:17 54.18268 10.02122 996 ft 113 kts
2026-04-20 17:17 54.19043 10.02062 1059 ft 113 kts
2026-04-20 17:17 54.19825 10.01964 1138 ft 113 kts
2026-04-20 17:17 54.20614 10.01825 1203 ft 114 kts
2026-04-20 17:18 54.21413 10.01666 1284 ft 115 kts
2026-04-20 17:18 54.22207 10.01501 1332 ft 115 kts
2026-04-20 17:18 54.22998 10.01323 1362 ft 114 kts
2026-04-20 17:18 54.23786 10.01140 1396 ft 114 kts
2026-04-20 17:19 54.24579 10.00990 1425 ft 113 kts
2026-04-20 17:19 54.25348 10.00845 1442 ft 113 kts
2026-04-20 17:19 54.26133 10.00685 1468 ft 115 kts
2026-04-20 17:19 54.26935 10.00504 1496 ft 117 kts
2026-04-20 17:20 54.27741 10.00315 1510 ft 118 kts
2026-04-20 17:20 54.28555 10.00113 1534 ft 118 kts
2026-04-20 17:20 54.29373 9.99897 1519 ft 119 kts
2026-04-20 17:20 54.30193 9.99667 1531 ft 120 kts
2026-04-20 17:21 54.31014 9.99421 1523 ft 120 kts
2026-04-20 17:21 54.31836 9.99159 1527 ft 120 kts
2026-04-20 17:21 54.32658 9.98880 1518 ft 120 kts
2026-04-20 17:21 54.33476 9.98585 1507 ft 120 kts 360°
2026-04-20 17:22 54.34294 9.98272 1474 ft 121 kts 360°
2026-04-20 17:22 54.35121 9.97909 1453 ft 123 kts 357°
2026-04-20 17:22 54.35944 9.97458 1439 ft 125 kts 354°
2026-04-20 17:22 54.36766 9.96965 1427 ft 126 kts 353°
2026-04-20 17:23 54.37594 9.96456 1407 ft 126 kts 353°
2026-04-20 17:23 54.38419 9.95938 1387 ft 126 kts 353°
2026-04-20 17:23 54.39246 9.95427 1359 ft 127 kts 354°
2026-04-20 17:23 54.40073 9.94903 1332 ft 127 kts 353°
2026-04-20 17:24 54.40901 9.94365 1321 ft 127 kts 353°
2026-04-20 17:24 54.41725 9.93769 1317 ft 131 kts 347°
2026-04-20 17:24 54.42535 9.93056 1297 ft 131 kts 345°
2026-04-20 17:24 54.43342 9.92300 1293 ft 132 kts 344°
2026-04-20 17:25 54.44141 9.91525 1293 ft 132 kts 343°
2026-04-20 17:25 54.44936 9.90736 1257 ft 131 kts 342°
2026-04-20 17:25 54.45675 9.89803 1159 ft 133 kts 329°
2026-04-20 17:25 54.46291 9.88816 1070 ft 108 kts 330°
2026-04-20 17:26 54.46791 9.88092 946 ft 83 kts 346°
2026-04-20 17:26 54.47270 9.87681 775 ft 75 kts 341°
2026-04-20 17:26 54.47720 9.87287 563 ft 66 kts 296°
2026-04-20 17:26 54.47838 9.86762 373 ft 39 kts 206°
2026-04-20 17:27 54.47594 9.86674 302 ft 39 kts 96°
2026-04-20 17:27 54.47531 9.87069 209 ft 34 kts 60°
2026-04-20 17:27 54.47590 9.87327 49 ft 10 kts 60°
2026-04-20 17:27 54.47593 9.87350 27 ft 3 kts 73°
2026-04-20 17:28 54.47560 9.87317 29 ft 5 kts 78°
2026-04-20 17:28 54.47559 9.87314 24 ft 1 kts 59°
2026-04-20 17:28 54.47560 9.87318 16 ft 0 kts 60°